Location: Newark
(54.5481°N, 3.5856°W)
Time: 09:01:12
(UTC+00:00)

Envisat - Visible Passes

Search period start: 20 October 2019 00:00
Search period end: 30 October 2019 00:00
Orbit: 764 x 766 km, 98.1° (Epoch: 20 October)

Date Brightness Start Highest point End Pass type
(mag) Time Alt. Az. Time Alt. Az. Time Alt. Az.
20 Oct 5.9 06:13:13 10° NE 06:17:17 23° E 06:21:18 10° SE visible
20 Oct 3.1 17:34:16 10° SE 17:39:15 58° ENE 17:44:15 10° N visible
20 Oct 5.2 19:14:21 10° SSW 19:18:38 27° W 19:22:57 10° NW visible
21 Oct 6.4 05:37:54 10° ENE 05:39:58 12° E 05:42:03 10° ESE visible
21 Oct 4.0 18:36:39 10° S 18:41:35 50° W 18:46:32 10° NNW visible
22 Oct 3.0 17:59:37 10° SSE 18:04:43 88° ENE 18:09:51 10° NNW visible
22 Oct 5.8 19:41:06 10° SW 19:44:27 18° W 19:47:51 10° NW visible
23 Oct 6.0 06:02:13 10° NE 06:05:52 19° E 06:09:31 10° SE visible
23 Oct 4.9 19:02:44 10° SSW 19:07:16 32° W 19:11:50 10° NNW visible
24 Oct 3.6 18:25:15 10° S 18:30:16 60° W 18:35:19 10° NNW visible
24 Oct 6.2 20:09:06 10° W 20:10:24 11° W 20:11:43 10° WNW visible
25 Oct 3.0 17:48:23 10° SSE 17:53:27 75° ENE 17:58:33 10° NNW visible
25 Oct 5.6 19:29:14 10° SW 19:33:03 21° W 19:36:53 10° NW visible
26 Oct 6.1 05:51:19 10° NE 05:54:27 16° E 05:57:34 10° ESE visible
26 Oct 4.5 18:51:11 10° SSW 18:55:55 38° W 19:00:41 10° NNW visible
27 Oct 3.3 18:13:53 10° S 18:18:58 72° WSW 18:24:05 10° NNW visible
27 Oct 6.1 19:56:29 10° WSW 19:58:56 13° W 20:01:24 10° NW visible
28 Oct 5.7 06:16:07 10° NE 06:20:18 25° E 06:24:27 10° SE visible
28 Oct 3.0 17:37:12 10° SSE 17:42:12 63° ENE 17:47:15 10° N visible
28 Oct 5.3 19:17:29 10° SW 19:21:39 25° W 19:25:50 10° NW visible
29 Oct 6.2 05:40:34 10° NE 05:43:01 13° E 05:45:27 10° ESE visible
29 Oct 4.1 18:39:41 10° S 18:44:34 46° W 18:49:29 10° NNW visible
